Flag for France Weather past 2 weeks in Istres, France

Now
73 °F

Passing clouds.


Feels Like: 73 °F
Forecast: 66 / 78 °F
Wind: 12 mph from Southeast

Location: Istres Airport

Current Time: Sep 20, 2014 at 12:16:56 AM

Latest Report: Sep 20, 2014 at 12:00 AM


Visibility: N/A

Pressure: 29.98 "Hg

Humidity: 83%

Dew point: 68 °F

Location of IstresLocation

Historic Weather in Istres — Graph

°F

Istres temperature yesterday

Maximum temperature yesterday: 82 °F (at 2:00 PM)
Minimum temperature yesterday: 70 °F (at 10:00 AM)
Average temperature yesterday: 75 °F

Past Weeks' High & Low Weather Summary

 TemperatureHumidityPressure
High88 °F (Sep 10, 5:00 PM)100% (Sep 9, 6:00 AM)30.04 "Hg (Sep 9, 6:00 AM)
Low57 °F (Sep 14, 6:00 AM)24% (Sep 12, 5:00 PM)29.77 "Hg (Sep 10, 6:30 PM)
Average73 °F68%29.90 "Hg
* Reported Sep 4 11:00 PM — Sep 19 11:00 PM, Istres, Weather by CustomWeather, © 2014

Note: Actual official high and low records may vary slightly from our data, if they occured in-between our weather recording intervals... More about our weather records

Advertising

Istres weather history for previous 24 hours

 ConditionsComfort  
Time TempWeatherWind HumidityBarometerVisibility
11:00 PM
Sep 19
75 °FPassing clouds.8 mph78%29.98 "HgN/A
10:30 PM75 °FPassing clouds.13 mph78%29.98 "HgN/A
10:00 PM75 °FPartly cloudy.13 mph78%29.95 "HgN/A
9:30 PM75 °FPartly cloudy.10 mph78%29.95 "HgN/A
9:00 PM75 °FPassing clouds.10 mph78%29.95 "HgN/A
8:30 PM75 °FPassing clouds.12 mph78%29.95 "HgN/A
8:00 PM75 °FClear.12 mph78%29.95 "HgN/A
7:30 PM75 °FClear.14 mph78%29.95 "HgN/A
7:00 PM77 °FClear.14 mph74%29.92 "HgN/A
6:30 PM79 °FClear.16 mph70%29.92 "HgN/A
6:00 PM79 °FClear.18 mph65%29.92 "HgN/A
5:30 PM81 °FPassing clouds.17 mph62%29.92 "HgN/A
5:00 PM82 °FPassing clouds.18 mph55%29.92 "HgN/A
4:30 PM82 °FClear.20 mph55%29.92 "HgN/A
4:00 PM82 °FClear.18 mph58%29.92 "HgN/A
3:30 PM82 °FClear.17 mph58%29.92 "HgN/A
3:00 PM82 °FClear.16 mph58%29.92 "HgN/A
2:30 PM82 °FPassing clouds.17 mph51%29.92 "HgN/A
2:00 PM82 °FPassing clouds.16 mph55%29.92 "HgN/A
1:30 PM79 °FScattered clouds.12 mph65%29.92 "HgN/A
1:00 PM79 °FPartly sunny.12 mph65%29.92 "HgN/A
12:30 PM77 °FClear.13 mph74%29.92 "HgN/A
12:00 PM75 °FClear.5 mph74%29.92 "HgN/A
11:30 AM73 °FClear.7 mph78%29.92 "HgN/A
11:00 AM72 °FClear.13 mph83%29.92 "HgN/A
10:30 AM72 °FMild.7 mph88%29.89 "HgN/A
10:00 AM70 °FThunderstorms. Fog.21 mph88%29.92 "Hg3 mi
9:30 AM72 °FMild.14 mph83%29.89 "HgN/A
9:00 AM72 °FPartly sunny.16 mph83%29.86 "HgN/A
8:30 AM72 °FThundershowers. Partly sunny.14 mph83%29.89 "HgN/A
8:00 AM72 °FThunderstorms. Partly cloudy.13 mph83%29.86 "HgN/A
7:30 AM73 °FMild.14 mph74%29.86 "HgN/A
7:00 AM73 °FMild.15 mph74%29.86 "HgN/A
6:30 AM73 °FClear.14 mph74%29.86 "HgN/A
6:00 AM73 °FClear.14 mph74%29.86 "HgN/A
5:30 AM73 °FClear.12 mph74%29.86 "HgN/A
5:00 AM73 °FClear.14 mph74%29.89 "HgN/A
4:30 AM73 °FClear.12 mph74%29.86 "HgN/A
4:00 AM73 °FClear.12 mph74%29.89 "HgN/A
3:30 AM72 °FClear.9 mph78%29.89 "HgN/A
3:00 AM73 °FClear.10 mph74%29.89 "HgN/A
2:30 AM72 °FClear.12 mph78%29.89 "HgN/A
2:00 AM73 °FClear.12 mph74%29.92 "HgN/A
1:30 AM73 °FClear.12 mph74%29.92 "HgN/A
1:00 AM73 °FClear.10 mph74%29.92 "HgN/A
12:30 AM73 °FClear.12 mph74%29.89 "HgN/A
12:00 AM73 °FClear.13 mph74%29.89 "HgN/A
Weather by CustomWeather, © 2014

See weather overviewHow to use our weather pages